{"data":{"norad_id":51879,"epoch":"2026-05-25T00:33:28.683360Z","epoch_age_seconds":76614,"freshness":"FRESH","line1":"1 51879U 22022AD  26145.02324865 -.00000637  00000+0 -21898-4 0  9995","line2":"2 51879  53.2142  16.4451 0001517  88.8171 271.2995 15.08845310234770","mean_motion":15.0884531,"eccentricity":0.0001517,"inclination_deg":53.2142,"raan_deg":16.4451,"arg_perigee_deg":88.8171,"mean_anomaly_deg":271.2995,"bstar":-2.1898e-5,"rev_number":23477,"period_min":95.437218809395,"perigee_km":538.67771847316,"apogee_km":540.77659845884,"semimajor_km":6917.864158466,"source":"CELESTRAK","updated_at":"2026-05-25T13:38:16.985354Z"}}